Terminal Aerodrome Forecast
Issued by NWS Albany, NY

Home | Current Version | Previous Version | Text Only | Print | Product List | Glossary On
Versions: 1 2 3 4 5 6 7 8 9 10 11 12 13 14 15 16 17 18 19
000
FTUS41 KALY 030526
TAFALB
TAF
KALB 030526Z 0306/0406 31010KT P6SM FEW050
     FM030900 VRB03KT P6SM SKC
     FM031600 17006KT P6SM SCT120 BKN200
     FM031900 18009KT P6SM VCSH OVC060
     FM032100 18010G17KT 1SM -SN BR OVC015
     FM040100 18011G18KT 2SM -FZRAPL BR OVC008=

USA.gov is the U.S. government's official web portal to all federal, state and local government web resources and services.